Location: Tucson
(32.2217°N, 110.9265°W)
Time: 06:50:45
(UTC-07:00)

Tiros 1 - Pass Details

Date: 26 October 2021
Orbit: 629 x 664 km, 48.4° (Epoch: 26 November)

Event Time Altitude Azimuth Distance (km) Brightness Sun altitude
Rises 07:34:06 0° 200° (SSW) 2,976 10.6 10.8°
Reaches altitude 10° 07:36:44 10° 188° (S) 2,067 10.0 11.3°
Maximum altitude 07:40:43 26° 131° (SE) 1,278 10.3 12.1°
Drops below altitude 10° 07:44:42 10° 75° (ENE) 2,069 10.7 12.8°
Sets 07:47:19 0° 63° (ENE) 2,979 11.1 13.4°
